Location: Aalen
(48.8330°N, 10.1000°E)
Time: 18:54:28
(UTC+02:00)

Transit 4A - Pass Details

Date: 02 August 2021
Orbit: 871 x 974 km, 66.8° (Epoch: 16 September)

Event Time Altitude Azimuth Distance (km) Brightness Sun altitude
Rises 07:51:45 0° 325° (NW) 3,471 10.6 17.4°
Reaches altitude 10° 07:54:35 10° 336° (NNW) 2,534 10.1 17.9°
Maximum altitude 07:59:38 29° 36° (NE) 1,562 9.9 18.7°
Drops below altitude 10° 08:04:44 10° 96° (E) 2,562 12.3 19.5°
Sets 08:07:36 0° 107° (ESE) 3,515 12.2 20.0°
